sat.trackr.live / text

‹ back to catalog

STARLINK-32168

NORAD 60335 · 2024-136G

PAYLOAD ACTIVE UNKNOWN

§ Identity

Operator
Country
US
Launch date
2024-08-02
Launch site
AFETR
Launch vehicle
Mass (kg)
RCS (m²)

Purposes: comms

External: N2YO · Heavens-Above · Gunter

§ Orbital elements

Epoch: 2026-09-21T03:38:06.894816Z

Period
93.85 min
Inclination
53.1587°
Eccentricity
0.0001232
Mean motion
15.34398408 rev/d
Perigee alt
461.9 km
Apogee alt
463.6 km
Semi-major
6,840.8 km
B*
4.1422e-4
RAAN
246.8456°
Arg perigee
81.2991°
Mean anomaly
278.8152°
Rev number
11,960

§ Raw data

STARLINK-321681 60335U 24136G   26264.15146869  .00013644  00000+0  41422-3 0  99962 60335  53.1587 246.8456 0001232  81.2991 278.8152 15.34398408119606

JSON: /api/v1/satellites/60335 · /tle

For live sub-satellite position, see the globe view (requires WebGL).

§ Visibility from observer

Set your observer location to see the next 7 days of passes ≥ 10°. The values pass through the URL so the page stays shareable.

No JS? Fill the form by hand. The geolocation button needs JavaScript.